This demonstration page uses our WeatherBlox Daily Observations layout. Learn more.

Left ArrowRight Arrow

Hourly Observations for June 25, 2017

Temp ( °F °C ) Dew Point ( °F °C ) Humidity (%) Winds ( mph kmh ) Pressure ( in mb ) Visibility ( mi km ) Precip ( " mm )
12:56 am 00:56 Clear 59 14.9 41 5.1 52 52 NNW 5 7 30.21 1023 10 16 0.00 0.00
1:56 am 01:56 Clear 60 15.3 42 5.5 52 52 N 3 6 30.22 1023 10 16 0.00 0.00
2:56 am 02:56 Clear 57 13.9 42 5.5 57 57 NNW 6 9 30.23 1024 10 16 0.00 0.00
3:56 am 03:56 Clear 53 11.5 44 6.4 71 71 Calm 30.25 1024 10 16 0.00 0.00
4:56 am 04:56 Mostly Clear 51 10.3 43 5.9 74 74 NNW 6 9 30.27 1025 10 16 0.00 0.00
5:56 am 05:56 Mostly Cloudy 54 12.3 45 7 70 70 WNW 6 9 30.28 1025 10 16 0.00 0.00
6:11 am 06:11 Mostly Cloudy with Drizzle 54 12 45 7 72 72 NNW 6 9 30.27 1025 10 16 0.00 0.00
6:20 am 06:20 Cloudy 55 13 45 7 67 67 WNW 8 13 30.29 1026 10 16 0.00 0.00
6:56 am 06:56 Cloudy 56 13.3 46 7.7 69 69 WNW 6 9 30.29 1026 10 16 0.00 0.03
7:56 am 07:56 Mostly Sunny 60 15.8 46 7.8 59 59 WNW 6 9 30.30 1026 10 16 0.00 0.00
8:56 am 08:56 Sunny 65 18.1 41 5 42 42 NNW 10 17 30.31 1026 10 16 0.00 0.00
9:56 am 09:56 Sunny 67 19.3 42 5.7 41 41 NNW 8 13 30.32 1027 10 16 0.00 0.00
10:45 am 10:45 Sunny 68 20 43 6 40 40 NNW 17 28 30.31 1027 10 16 0.00 0.00
10:56 am 10:56 Sunny 68 19.8 43 6.2 41 41 NW 13 20 30.31 1027 10 16 0.00 0.00
11:56 am 11:56 Sunny 69 20.6 44 6.5 40 40 NNW 13 20 30.31 1027 10 16 0.00 0.00
12:19 pm 12:19 Sunny 70 21 45 7 40 40 WNW 15 24 30.30 1026 10 16 0.00 0.00
12:34 pm 12:34 Sunny 70 21 43 6 38 38 W 14 22 30.30 1026 10 16 0.00 0.00
12:56 pm 12:56 Sunny 70 21.3 44 6.4 38 38 WNW 14 22 30.29 1026 10 16 0.00 0.00
1:56 pm 13:56 Sunny 72 22.1 45 7.1 38 38 WNW 7 11 30.28 1025 10 16 0.00 0.00
2:56 pm 14:56 Sunny 73 22.8 44 6.9 36 36 WNW 9 15 30.26 1025 10 16 0.00 0.00
3:56 pm 15:56 Sunny 75 23.7 42 5.6 31 31 W 6 9 30.25 1025 10 16 0.00 0.00
4:56 pm 16:56 Sunny 75 24.1 42 5.4 30 30 NNW 5 7 30.24 1024 10 16 0.00 0.00
5:56 pm 17:56 Sunny 76 24.3 42 5.6 30 30 NW 5 7 30.22 1023 10 16 0.00 0.00
6:56 pm 18:56 Sunny 75 23.9 41 4.8 29 29 WNW 5 7 30.21 1023 10 16 0.00 0.00
7:56 pm 19:56 Sunny 74 23.3 43 6.1 33 33 N 3 6 30.21 1023 10 16 0.00 0.00
8:56 pm 20:56 Sunny 64 17.7 53 11.5 67 67 Calm 30.21 1023 10 16 0.00 0.00
9:56 pm 21:56 Clear 61 16.3 48 9 62 62 SE 3 6 30.20 1023 10 16 0.00 0.00
10:56 pm 22:56 Clear 56 13.6 50 10 79 79 Calm 30.19 1023 10 16 0.00 0.00
11:56 pm 23:56 Clear 54 12 49 9.7 86 86 Calm 30.20 1023 10 16 0.00 0.00

Powered by AerisWeather